Regional Weather Roundup
Issued by NWS

Home | Current Version | Previous Version | Graphics & Text | Print | Product List | Glossary On
Versions: 1 2 3 4 5 6 7 8 9 10 11 12 13 14 15 16 17 18 19 20 21 22 23 24 25 26 27 28 29 30 31 32 33 34 35 36 37 38 39 40 41 42 43 44 45 46 47 48 49 50
000
ASUS45 KABQ 230501
RWRNM
NEW MEXICO REGIONAL WEATHER ROUNDUP
NATIONAL WEATHER SERVICE ALBUQUERQUE NM
1000 PM MST THU FEB 22 2018

NOTE: "FAIR" MEANS FEW OR NO CLOUDS BELOW 12,000 FEET AGL WITH NO
       SIGNIFICANT WEATHER OR OBSTRUCTIONS TO VISION.

      THIS PRODUCT IS RELEASED AS TWO VERSIONS.  ONE VERSION NEAR
      THE TOP OF THE HOUR CONTAINING PRELIMINARY DATA FROM ALBUQUERQUE
      AND OTHER STATIONS.  A FINAL VERSION WITH ADDITIONAL DATA IS
      ISSUED ABOUT 10 MINUTES AFTER THE HOUR.

NMZ501-503-504-510>518-230600-
NORTHWEST PLATEAU/NORTHCENTRAL MOUNTAINS

CITY           SKY/WX    TMP DP  RH WIND       PRES   REMARKS
FARMINGTON     MOCLDY    34  10  37 SW15G24   30.01R WCI  24
LOS ALAMOS     FAIR      27  12  53 W3        30.06S
SANTA FE       FAIR      22  16  78 N7        30.06R WCI  13
TAOS           FAIR      16  10  77 SE7       30.09S WCI   6
ANGEL FIRE     FAIR       2  -1  89 CALM      30.05S

$$
NMZ402-403-502-505>509-230600-
WESTCENTRAL MOUNTAINS/SOUTHWEST MOUNTAINS

CITY           SKY/WX    TMP DP  RH WIND       PRES   REMARKS
GALLUP         FAIR      27  12  53 SW8       30.07R WCI  19
GRANTS         FAIR      31  10  41 W12G22    30.08R WCI  21
SILVER CITY    FAIR      31  19  60 N10       30.15S WCI  22

$$
NMZ407-409-411-412-230600-
SOUTHERN DESERTS

CITY           SKY/WX    TMP DP  RH WIND       PRES   REMARKS
DEMING         FAIR      40  20  44 W5        30.14S
LAS CRUCES     FAIR      40  20  45 SW5       30.16S
HOLLOMAN AFB   FAIR      42  21  42 E9        30.15S
ALAMOGORDO     FAIR      41  19  42 SE7       30.15S
T OR C         FAIR      45  12  26 SW12      30.11R

$$
NMZ519>523-230600-
CENTRAL VALLEYS/CENTRAL HIGHLANDS

CITY           SKY/WX    TMP DP  RH WIND       PRES   REMARKS
ALBUQUERQUE    FAIR      36  16  44 W3        30.08R
DOUBLE EAGLE   CLEAR     23  12  63 NW5       30.07  WCI  17
MORIARTY ARPT  FAIR      21  13  70 SW5       30.09R WCI  15
CLINES CORNERS FAIR      26  10  50 S5        30.08R WCI  20
BELEN          FAIR      38   5  25 W7        30.08R WCI  32
SOCORRO        FAIR      43  10  26 S12       30.08R

$$
NMZ524>526-539-540-230600-
SOUTHCENTRAL MOUNTAINS

CITY           SKY/WX    TMP DP  RH WIND       PRES   REMARKS
RUIDOSO        NOT AVBL

$$
NMZ527>531-230600-
NORTHEAST HIGHLANDS/NORTHEAST PLAINS

CITY           SKY/WX    TMP DP  RH WIND       PRES   REMARKS
LAS VEGAS      FAIR      23  11  60 S14       30.05R WCI  11
RATON          FAIR      20   4  50 N6        30.03S WCI  12
CLAYTON        FAIR      31  10  41 W13       30.03S WCI  21

$$
NMZ532>537-230600-
EASTCENTRAL PLAINS

CITY           SKY/WX    TMP DP  RH WIND       PRES   REMARKS
SANTA ROSA     FAIR      32  18  56 CALM      30.08R
TUCUMCARI      FAIR      33  15  47 VRB3      30.06R
CANNON AFB     FAIR      35  25  65 S10       30.11R WCI  28
CLOVIS AIRPORT NOT AVBL

$$
NMZ028-029-538-230600-
SOUTHEAST PLAINS

CITY           SKY/WX    TMP DP  RH WIND       PRES   REMARKS
ROSWELL        FAIR      41  27  57 S13       30.10R
ARTESIA        FAIR      39  28  65 S13       30.13R WCI  32
CARLSBAD       FAIR      35  28  75 S6        30.13R WCI  30
HOBBS          FAIR      37  30  75 SW5       30.15R WCI  34


$$




USA.gov is the U.S. government's official web portal to all federal, state and local government web resources and services.